Weather History for North Las Vegas, NV

Change the Weather History Date:

Wednesday, April 24, 2013

  Actual Average Record
Temperature  
Mean Temperature 64 °F -  
Max Temperature 80 °F 81 °F 96 °F (1953)
Min Temperature 50 °F 57 °F 37 °F (1960)
Growing Degree Days 14 (Base 50)    
Moisture  
Dew Point 7 °F    
Average Humidity 12    
Maximum Humidity 25    
Minimum Humidity 4    
Precipitation  
Precipitation 0.00 in - - ()
Sea Level Pressure  
Sea Level Pressure 29.93 in    
Wind  
Wind Speed 4 mph (NNE)    
Max Wind Speed 10 mph    
Max Gust Speed -    
Visibility 10 miles    
Events      
Averages and records for this station are not official NWS values.
T = Trace of Precipitation, MM = Missing Value Source: NWS Daily Summary

Daily Weather History Graph

Daily Weather History Graph

Search for Another Location

Airport:

Trip Planner

Search our weather history database for the weather conditions in past years. The results will help you decide how hot, cold, wet, or windy it might be!

Date:

Astronomy

Apr. 24, 2013 Rise Set
Actual Time 5:55 AM PDT 7:22 PM PDT
Civil Twilight 5:28 AM PDT 7:49 PM PDT
Nautical Twilight 4:56 AM PDT 8:22 PM PDT
Astronomical Twilight 4:22 AM PDT 8:56 PM PDT
Moon 6:31 PM PDT (4/24) 4:59 AM PDT (4/24)
Length of Visible Light 14h 21m
Length of Day
13h 27m
Waxing Gibbous, 98% of the Moon is Illuminated
Apr 24
Waxing Gibbous
Apr 25
Full
May 2
Last Quarter
May 9
New
May 17
First Quarter

Hourly Weather History & Observations

Time (PDT) Temp. Dew Point Humidity Pressure Visibility Wind Dir Wind Speed Gust Speed Precip Events Conditions
12:53 AM 57.9 °F 15.1 °F 19% 29.95 in 10.0 mi North 4.6 mph - N/A   Clear
1:53 AM 57.9 °F 14.0 °F 18% 29.94 in 10.0 mi WNW 5.8 mph - N/A   Clear
2:53 AM 55.4 °F 14.0 °F 20% 29.91 in 10.0 mi Calm Calm - N/A   Clear
3:53 AM 54.0 °F 17.1 °F 23% 29.93 in 10.0 mi Calm Calm - N/A   Clear
4:53 AM 51.1 °F 16.0 °F 25% 29.94 in 10.0 mi North 4.6 mph - N/A   Clear
5:53 AM 50.0 °F 15.1 °F 25% 29.96 in 10.0 mi North 3.5 mph - N/A   Clear
6:53 AM 53.1 °F 16.0 °F 23% 29.99 in 10.0 mi North 3.5 mph - N/A   Clear
7:53 AM 60.1 °F 12.0 °F 15% 30.01 in 10.0 mi NNW 3.5 mph - N/A   Clear
8:53 AM 64.0 °F 9.0 °F 12% 30.01 in 10.0 mi South 3.5 mph - N/A   Clear
9:53 AM 66.9 °F 7.0 °F 10% 30.02 in 10.0 mi SE 4.6 mph - N/A   Clear
10:53 AM 71.1 °F 5.0 °F 8% 30.02 in 10.0 mi Variable 3.5 mph - N/A   Clear
11:53 AM 73.9 °F 3.0 °F 6% 30.01 in 10.0 mi North 4.6 mph - N/A   Clear
12:53 PM 75.0 °F 1.9 °F 6% 29.99 in 10.0 mi Calm Calm - N/A   Clear
1:53 PM 77.0 °F -0.0 °F 5% 29.95 in 10.0 mi NE 3.5 mph - N/A   Clear
2:53 PM 79.0 °F -0.0 °F 5% 29.92 in 10.0 mi East 8.1 mph - N/A   Clear
3:53 PM 78.1 °F -0.9 °F 5% 29.88 in 10.0 mi ESE 9.2 mph - N/A   Clear
4:53 PM 77.0 °F -2.9 °F 4% 29.87 in 10.0 mi ESE 8.1 mph - N/A   Clear
5:53 PM 77.0 °F -2.9 °F 4% 29.86 in 10.0 mi ESE 10.4 mph - N/A   Clear
6:53 PM 75.0 °F -2.0 °F 5% 29.86 in 10.0 mi East 5.8 mph - N/A   Clear
7:53 PM 73.9 °F -0.9 °F 5% 29.86 in 10.0 mi Calm Calm - N/A   Clear
8:53 PM 71.1 °F 10.9 °F 10% 29.87 in 10.0 mi West 5.8 mph - N/A   Clear
9:53 PM 66.9 °F 9.0 °F 10% 29.88 in 10.0 mi NNW 5.8 mph - N/A   Clear
10:53 PM 64.0 °F 9.0 °F 12% 29.88 in 10.0 mi NW 5.8 mph - N/A   Clear
11:53 PM 63.0 °F 8.1 °F 11% 29.88 in 10.0 mi ENE 4.6 mph - N/A   Clear